Location: Colle Santa Colomba
(42.0333°N, 12.5667°E)
Time: 01:07:56
(UTC+00:00)

SAOCOM 1-B - Pass Details

Date: 16 August 2022
Orbit: 621 x 623 km, 97.9° (Epoch: 28 September)

Event Time Altitude Azimuth Distance (km) Brightness Sun altitude
Rises 03:03:35 0° 114° (ESE) 2,896 ? -13.3°
Maximum altitude 03:08:41 12° 61° (ENE) 1,887 ? -12.5°
Drops below altitude 10° 03:10:12 10° 41° (NE) 2,001 ? -12.2°
Sets 03:13:48 0° 9° (N) 2,913 ? -11.7°
